Location: Banff
(51.1667°N, 115.5667°W)
Time: 03:58:55
(UTC+00:00)

S-56A Canister/Altair - Pass Details

Date: 17 May 2021
Orbit: 632 x 2500 km, 38.9° (Epoch: 16 June)

Event Time Altitude Azimuth Distance (km) Brightness Sun altitude
Rises 05:20:33 0° 278° (W) 6,077 12.8 -13.2°
Reaches altitude 10° 05:27:21 10° 259° (W) 4,824 11.8 -13.8°
Maximum altitude 05:33:12 14° 232° (SW) 4,164 11.2 -14.3°
Drops below altitude 10° 05:38:24 10° 205° (SSW) 4,164 10.9 -14.7°
Enters shadow 05:41:02 - 192° (SSW) 4,405 11.0 -14.9°
